• In Deutschland
  • Länderverzeichnis
  • Für 7 Tage
  • Wassertemperatur
  • Satellitenkarten
  • Wetterkarte
  • Widgets
  • user-avatar
    Anmelden

    Stündliche Wetter Potsdam

    Heute, 21 April, Samstag

    Zeit Temperatur Niederschläge Wind Luftdruck Luftfeuchtigkeit
    00:00 +17°C° 0 mm 2 m/S 760 mmHg 76%
    01:00 +17°C° 0 mm 2 m/S 760 mmHg 79%
    02:00 +16°C° 0 mm 2 m/S 760 mmHg 79%
    03:00 +15°C° 0 mm 2 m/S 760 mmHg 79%
    04:00 +15°C° 0 mm 2 m/S 760 mmHg 78%
    05:00 +15°C° 0 mm 2 m/S 760 mmHg 76%
    06:00 +15°C° 0 mm 2 m/S 761 mmHg 73%
    07:00 +14°C° 0 mm 3 m/S 761 mmHg 71%
    08:00 +16°C° 0 mm 3 m/S 761 mmHg 66%
    09:00 +18°C° 0 mm 3 m/S 761 mmHg 61%
    10:00 +19°C° 0 mm 3 m/S 761 mmHg 56%
    11:00 +20°C° 0 mm 3 m/S 761 mmHg 53%
    12:00 +21°C° 0 mm 3 m/S 761 mmHg 49%
    13:00 +22°C° 0 mm 4 m/S 761 mmHg 45%
    14:00 +22°C° 0 mm 4 m/S 761 mmHg 45%
    15:00 +21°C° 0 mm 4 m/S 761 mmHg 45%
    16:00 +21°C° 0 mm 4 m/S 761 mmHg 45%
    17:00 +19°C° 0 mm 3 m/S 761 mmHg 51%
    18:00 +18°C° 0 mm 3 m/S 761 mmHg 57%
    19:00 +16°C° 0 mm 2 m/S 761 mmHg 63%
    20:00 +15°C° 0 mm 2 m/S 761 mmHg 66%
    21:00 +13°C° 0 mm 2 m/S 761 mmHg 68%
    22:00 +12°C° 0 mm 2 m/S 762 mmHg 70%
    23:00 +12°C° 0 mm 2 m/S 762 mmHg 72%

    Morgen, 22 April, Sonntag

    Zeit Temperatur Niederschläge Wind Luftdruck Luftfeuchtigkeit
    00:00 +11°C° 0 mm 1 m/S 762 mmHg 73%
    01:00 +11°C° 0 mm 1 m/S 762 mmHg 74%
    02:00 +10°C° 0 mm 1 m/S 762 mmHg 76%
    03:00 +10°C° 0 mm 1 m/S 761 mmHg 77%
    04:00 +10°C° 0 mm 1 m/S 761 mmHg 78%
    05:00 +11°C° 0 mm 1 m/S 761 mmHg 75%
    06:00 +12°C° 0 mm 1 m/S 761 mmHg 73%
    07:00 +13°C° 0 mm 1 m/S 761 mmHg 70%
    08:00 +14°C° 0 mm 2 m/S 760 mmHg 64%
    09:00 +16°C° 0 mm 2 m/S 760 mmHg 58%
    10:00 +18°C° 0 mm 2 m/S 760 mmHg 52%
    11:00 +20°C° 0 mm 2 m/S 759 mmHg 49%
    12:00 +21°C° 0 mm 2 m/S 759 mmHg 46%
    13:00 +23°C° 0 mm 2 m/S 758 mmHg 43%
    14:00 +23°C° 0 mm 2 m/S 758 mmHg 45%
    15:00 +24°C° 0 mm 2 m/S 757 mmHg 46%
    16:00 +24°C° 0 mm 2 m/S 757 mmHg 48%
    17:00 +21°C° 0,1 mm 2 m/S 756 mmHg 54%
    18:00 +20°C° 0,1 mm 2 m/S 756 mmHg 59%
    19:00 +19°C° 0,1 mm 2 m/S 756 mmHg 65%
    20:00 +18°C° 0,3 mm 2 m/S 756 mmHg 69%
    21:00 +17°C° 0,3 mm 2 m/S 756 mmHg 72%
    22:00 +16°C° 0,3 mm 3 m/S 756 mmHg 75%
    23:00 +16°C° 0,6 mm 2 m/S 755 mmHg 77%

    übermorgen, 23 April, Montag

    Zeit Temperatur Niederschläge Wind Luftdruck Luftfeuchtigkeit
    00:00 +15°C° 0,6 mm 2 m/S 755 mmHg 80%
    01:00 +15°C° 0,6 mm 2 m/S 755 mmHg 83%
    02:00 +15°C° 0 mm 2 m/S 754 mmHg 85%
    03:00 +15°C° 0 mm 2 m/S 754 mmHg 88%
    04:00 +14°C° 0 mm 3 m/S 754 mmHg 90%
    05:00 +14°C° 0 mm 3 m/S 754 mmHg 89%
    06:00 +16°C° 0 mm 3 m/S 754 mmHg 87%
    07:00 +17°C° 0 mm 4 m/S 754 mmHg 86%
    08:00 +17°C° 0,4 mm 4 m/S 754 mmHg 85%
    09:00 +18°C° 0,4 mm 3 m/S 754 mmHg 83%
    10:00 +18°C° 0,4 mm 3 m/S 754 mmHg 82%
    11:00 +18°C° 0,5 mm 4 m/S 754 mmHg 80%
    12:00 +19°C° 0,5 mm 4 m/S 754 mmHg 77%
    13:00 +19°C° 0,5 mm 4 m/S 754 mmHg 75%
    14:00 +19°C° 0,5 mm 4 m/S 754 mmHg 73%
    15:00 +19°C° 0,5 mm 5 m/S 754 mmHg 72%
    16:00 +19°C° 0,5 mm 5 m/S 754 mmHg 70%
    17:00 +18°C° 0,2 mm 4 m/S 754 mmHg 73%
    18:00 +17°C° 0,2 mm 4 m/S 755 mmHg 76%
    19:00 +14°C° 0,2 mm 4 m/S 755 mmHg 79%
    20:00 +13°C° 0 mm 3 m/S 756 mmHg 82%
    21:00 +12°C° 0 mm 3 m/S 756 mmHg 84%
    22:00 +11°C° 0 mm 3 m/S 757 mmHg 87%
    23:00 +10°C° 0 mm 3 m/S 757 mmHg 87%

    24 April, Dienstag

    Zeit Temperatur Niederschläge Wind Luftdruck Luftfeuchtigkeit
    00:00 +9°C° 0 mm 3 m/S 757 mmHg 88%
    01:00 +9°C° 0 mm 3 m/S 758 mmHg 88%
    02:00 +8°C° 0 mm 3 m/S 758 mmHg 89%
    03:00 +8°C° 0 mm 3 m/S 758 mmHg 90%
    04:00 +8°C° 0 mm 3 m/S 758 mmHg 91%
    05:00 +8°C° 0 mm 3 m/S 758 mmHg 87%
    06:00 +8°C° 0 mm 4 m/S 758 mmHg 84%
    07:00 +10°C° 0 mm 4 m/S 758 mmHg 80%
    08:00 +11°C° 0 mm 4 m/S 758 mmHg 73%
    09:00 +13°C° 0 mm 5 m/S 757 mmHg 66%
    10:00 +15°C° 0 mm 6 m/S 757 mmHg 59%
    11:00 +16°C° 0 mm 6 m/S 757 mmHg 57%
    12:00 +17°C° 0 mm 6 m/S 756 mmHg 54%
    13:00 +18°C° 0 mm 7 m/S 756 mmHg 51%
    14:00 +17°C° 0 mm 6 m/S 755 mmHg 54%
    15:00 +17°C° 0 mm 6 m/S 755 mmHg 57%
    16:00 +17°C° 0 mm 5 m/S 755 mmHg 60%
    17:00 +16°C° 0 mm 5 m/S 755 mmHg 65%
    18:00 +15°C° 0 mm 4 m/S 755 mmHg 70%
    19:00 +14°C° 0 mm 3 m/S 755 mmHg 75%
    20:00 +13°C° 0,3 mm 3 m/S 755 mmHg 79%
    21:00 +13°C° 0,3 mm 3 m/S 755 mmHg 83%
    22:00 +13°C° 0,3 mm 3 m/S 756 mmHg 87%
    23:00 +12°C° 0,1 mm 3 m/S 755 mmHg 88%

    25 April, Mittwoch

    Zeit Temperatur Niederschläge Wind Luftdruck Luftfeuchtigkeit
    00:00 +12°C° 0,1 mm 3 m/S 755 mmHg 90%
    01:00 +12°C° 0,1 mm 3 m/S 755 mmHg 91%
    02:00 +12°C° 0 mm 3 m/S 755 mmHg 92%
    03:00 +12°C° 0 mm 3 m/S 755 mmHg 93%
    04:00 +11°C° 0 mm 3 m/S 755 mmHg 94%
    05:00 +12°C° 0,3 mm 3 m/S 755 mmHg 93%
    06:00 +12°C° 0,3 mm 3 m/S 755 mmHg 91%
    07:00 +12°C° 0,3 mm 3 m/S 755 mmHg 90%
    08:00 +14°C° 0,9 mm 2 m/S 755 mmHg 90%
    09:00 +14°C° 0,9 mm 2 m/S 755 mmHg 89%
    10:00 +14°C° 0,9 mm 2 m/S 754 mmHg 88%
    11:00 +14°C° 0,4 mm 2 m/S 754 mmHg 86%
    12:00 +15°C° 0,4 mm 2 m/S 754 mmHg 85%
    13:00 +15°C° 0,4 mm 2 m/S 753 mmHg 83%
    14:00 +15°C° 0,6 mm 2 m/S 753 mmHg 84%
    15:00 +14°C° 0,6 mm 3 m/S 753 mmHg 85%
    16:00 +14°C° 0,6 mm 3 m/S 752 mmHg 85%
    17:00 +13°C° 0,2 mm 3 m/S 752 mmHg 87%
    18:00 +13°C° 0,2 mm 2 m/S 752 mmHg 89%
    19:00 +12°C° 0,2 mm 1 m/S 753 mmHg 90%
    20:00 +11°C° 0 mm 1 m/S 753 mmHg 91%
    21:00 +10°C° 0 mm 1 m/S 753 mmHg 92%
    22:00 +9°C° 0 mm 1 m/S 754 mmHg 93%
    23:00 +9°C° 0 mm 1 m/S 754 mmHg 93%

    26 April, Donnerstag

    Zeit Temperatur Niederschläge Wind Luftdruck Luftfeuchtigkeit
    00:00 +9°C° 0 mm 1 m/S 754 mmHg 93%
    01:00 +9°C° 0 mm 1 m/S 754 mmHg 94%
    02:00 +8°C° 0 mm 1 m/S 754 mmHg 94%
    03:00 +8°C° 0 mm 1 m/S 754 mmHg 95%
    04:00 +8°C° 0 mm 1 m/S 754 mmHg 95%
    05:00 +8°C° 0,1 mm 2 m/S 754 mmHg 93%
    06:00 +8°C° 0,1 mm 3 m/S 753 mmHg 92%
    07:00 +8°C° 0,1 mm 4 m/S 753 mmHg 90%
    08:00 +9°C° 0,4 mm 5 m/S 754 mmHg 85%
    09:00 +10°C° 0,4 mm 6 m/S 754 mmHg 80%
    10:00 +10°C° 0,4 mm 8 m/S 754 mmHg 74%
    11:00 +10°C° 0,5 mm 8 m/S 754 mmHg 72%
    12:00 +11°C° 0,5 mm 8 m/S 755 mmHg 69%
    13:00 +11°C° 0,5 mm 9 m/S 755 mmHg 67%
    14:00 +11°C° 0,4 mm 9 m/S 755 mmHg 68%
    15:00 +10°C° 0,4 mm 8 m/S 756 mmHg 70%
    16:00 +10°C° 0,4 mm 8 m/S 756 mmHg 71%
    17:00 +9°C° 0,2 mm 7 m/S 757 mmHg 74%
    18:00 +8°C° 0,2 mm 6 m/S 757 mmHg 77%
    19:00 +7°C° 0,2 mm 5 m/S 758 mmHg 80%
    20:00 +7°C° 0 mm 5 m/S 758 mmHg 82%
    21:00 +6°C° 0 mm 4 m/S 759 mmHg 84%
    22:00 +5°C° 0 mm 4 m/S 760 mmHg 85%
    23:00 +5°C° 0 mm 4 m/S 760 mmHg 86%
    Mehr zeigen